Regional Weather Roundup
Issued by NWS

Home | Current Version | Previous Version | Graphics & Text | Print | Product List | Glossary On
Versions: 1 2 3 4 5 6 7 8 9 10 11 12 13 14 15 16 17 18 19 20 21 22 23 24 25 26 27 28 29 30 31 32 33 34 35 36 37 38 39 40 41 42 43 44 45 46 47 48 49 50
000
ASUS43 KFSD 260102
RWRSD

WEATHER ROUNDUP FOR SOUTH DAKOTA
NATIONAL WEATHER SERVICE SIOUX FALLS SD
800 PM CDT TUE JUL 25 2017

NOTE: "FAIR" INDICATES FEW OR NO CLOUDS BELOW 12,000 FEET WITH NO
SIGNIFICANT WEATHER AND/OR OBSTRUCTIONS TO VISIBILITY.


SDZ001>005-009-010-012>017-260200-
NORTHWEST AND NORTH CENTRAL SOUTH DAKOTA

CITY           SKY/WX    TMP DP  RH WIND       PRES   REMARKS
BUFFALO          N/A     79  50  36 E5        30.01S
FAITH            N/A     80  52  37 N15       30.00S
MOBRIDGE       CLOUDY    79  60  52 NE8       29.92S
$$

SDZ012>016-024>037-041>051-057-063-072>074-260200-
SOUTHWEST AND SOUTH CENTRAL SOUTH DAKOTA

CITY           SKY/WX    TMP DP  RH WIND       PRES   REMARKS
RAPID CTY ARPT CLOUDY    81  60  48 N16       30.03R
PIERRE         MOSUNNY   84  70  62 NE21      29.88R
CUSTER         CLOUDY    72  55  55 NE15      30.18R
ELLSWORTH AFB  MOSUNNY   81  60  50 NE14      30.04R
PHILIP         CLOUDY    85  68  56 NE16      29.96R
PINE RIDGE     MOSUNNY   84  60  44 NE15G29   29.97R
SPEARFISH      PTSUNNY   75  57  53 CALM      30.12S
WINNER         FAIR      78  67  68 VRB3      29.96R THUNDER
$$

SDZ004>011-016>023-039-040-260200-
NORTHEAST SOUTH DAKOTA

CITY           SKY/WX    TMP DP  RH WIND       PRES   REMARKS
ABERDEEN       CLOUDY    80  71  74 N13       29.91S
WATERTOWN      CLOUDY    74  66  76 SW12      29.98R
SISSETON         N/A     79  73  82 NE5       29.93R
$$

SDZ017-020-022-023-036>040-048>070-260200-
SOUTHEAST SOUTH DAKOTA

CITY           SKY/WX    TMP DP  RH WIND       PRES   REMARKS
SIOUX FALLS    CLOUDY    88  65  46 S14       29.88S
HURON          CLOUDY    76  69  79 E6        29.85F
CHAMBERLAIN    LGT RAIN  86  69  56 E10       29.84R
MITCHELL       CLOUDY    74  69  85 NE17G26   29.86R
YANKTON        CLOUDY    90  65  43 S10       29.87F
$$

ABBREVIATIONS USED IN REMARKS
   TC - TEMPERATURE IN CELSIUS
  WCI - WIND CHILL INDEX
   HX - HEAT INDEX
  VSB - VISIBILITY





USA.gov is the U.S. government's official web portal to all federal, state and local government web resources and services.